This demonstration page uses our WeatherBlox Daily Observations layout. Learn more.

Left ArrowRight Arrow

38.83388, -104.82136

Hourly Observations for March 14, 2021

Temp ( °F °C ) Dew Point ( °F °C ) Humidity (%) Winds ( mph kmh ) Pressure ( in mb ) Visibility ( mi km ) Precip ( " mm )
12:43 am 00:43 Cloudy with Mist and Fog 25 -4 25 -4 100 100 NNW 16 26 29.45 997 1 2 0.00 0.00
12:53 am 00:53 Cloudy with Mist and Fog 27 -3 23 -5 86 86 NW 20 31 29.44 997 1 2 0.00 0.00
12:55 am 00:55 Cloudy with Light Snow 27 -3 25 -4 93 93 NNW 16 26 29.44 997 1 2 0.00 0.00
12:58 am 00:58 Cloudy with Light Snow 26 -3.2 23 -4.9 88 88 N 17 28 29.44 997 1 2 0.00 0.00
1:00 am 01:00 Cloudy with Mist and Fog 27 -3 23 -5 86 86 NNW 14 22 29.45 997 3 5 0.00 0.00
1:01 am 01:01 Cloudy with Light Snow 27 -3 23 -5 86 86 NNW 14 22 29.45 997 3 5 0.00 0.00
1:03 am 01:03 Cloudy with Mist and Fog 27 -3 23 -5 86 86 N 16 26 29.44 997 2 2 0.00 0.00
1:05 am 01:05 Cloudy with Light Snow 25 -4 23 -5 93 93 NNW 17 28 29.44 997 5 8 0.00 0.00
1:09 am 01:09 Cloudy with Mist and Fog 25 -4 23 -5 93 93 N 20 31 29.44 997 7 11 0.00 0.00
1:10 am 01:10 Windy with Snow Likely 25 -4 23 -5 93 93 NNW 21 33 29.44 997 7 11 0.00 0.00
1:12 am 01:12 Cloudy with Mist and Fog 25 -4 23 -5 93 93 NNW 20 31 29.44 997 5 8 0.00 0.00
1:22 am 01:22 Cloudy with Freezing Fog 25 -4 25 -4 100 100 NW 20 31 29.43 997 1 1 0.00 0.00
1:52 am 01:52 Cloudy with Haze 27 -3 23 -5 86 86 NW 21 33 29.42 996 2 2 0.00 0.00
1:57 am 01:57 Cloudy with Haze 28 -2 21 -6 74 74 NW 18 30 29.40 996 4 6 0.00 0.00
1:58 am 01:58 Cloudy with Haze 28 -2.4 22 -5.8 78 78 NW 20 31 29.40 996 4 6 0.00 0.00
3:26 am 03:26 Cloudy 28 -2 19 -7 69 69 NNW 16 26 29.37 995 10 16 0.00 0.00
3:56 am 03:56 Cloudy with Haze 27 -3 23 -5 86 86 NW 21 33 29.34 994 2 3 0.00 0.00
3:58 am 03:58 Cloudy with Haze 27 -2.6 23 -5.2 83 83 NW 21 33 29.34 994 2 3 0.01 0.25
4:13 am 04:13 Cloudy with Haze 27 -3 21 -6 80 80 N 15 24 29.36 994 3 4 0.00 0.00
4:28 am 04:28 Cloudy with Freezing Fog 25 -4 23 -5 93 93 NNW 15 24 29.37 995 1 1 0.00 0.00
4:38 am 04:38 Cloudy with Freezing Fog 25 -4 23 -5 93 93 NNW 16 26 29.36 994 3 5 0.00 0.00
4:43 am 04:43 Mostly Cloudy with Freezing Fog 25 -4 23 -5 93 93 NNW 17 28 29.35 994 0 0 0.00 0.00
4:48 am 04:48 Mostly Cloudy with Freezing Fog 25 -4 23 -5 93 93 NW 21 33 29.35 994 1 2 0.00 0.00
4:58 am 04:58 Mostly Cloudy with Freezing Fog 25 -3.8 23 -5.1 91 91 NW 24 39 29.33 993 1 2 0.00 0.00
5:23 am 05:23 Mostly Cloudy with Freezing Fog 27 -3 23 -5 86 86 NW 30 48 29.29 992 0 0 0.00 0.00
5:38 am 05:38 Cloudy with Haze 27 -3 21 -6 80 80 NW 23 37 29.29 992 7 11 0.00 0.00
5:43 am 05:43 Cloudy with Haze 27 -3 21 -6 80 80 NW 28 44 29.30 992 1 2 0.00 0.00
5:58 am 05:58 Cloudy with Haze 28 -2.2 20 -6.8 71 71 NNW 20 31 29.29 992 3 4 0.00 0.00
6:18 am 06:18 Cloudy with Mist and Fog 27 -3 21 -6 80 80 NNW 16 26 29.31 993 1 1 0.00 0.00
6:23 am 06:23 Cloudy with Freezing Fog 27 -3 23 -5 86 86 NNW 17 28 29.31 993 1 1 0.00 0.00
6:43 am 06:43 Cloudy with Freezing Fog 27 -3 23 -5 86 86 NNW 18 30 29.31 993 0 0 0.00 0.00
6:48 am 06:48 Mostly Cloudy with Freezing Fog 27 -3 23 -5 86 86 NNW 20 31 29.31 993 0 0 0.00 0.00
6:53 am 06:53 Mostly Cloudy with Freezing Fog 27 -3 23 -5 86 86 NW 22 35 29.30 992 0 0 0.00 0.00
6:58 am 06:58 Mostly Cloudy with Freezing Fog 26 -3.5 23 -5.1 89 89 NW 24 39 29.29 992 0 0 0.00 0.00
7:03 am 07:03 Cloudy with Freezing Fog 27 -3 23 -5 86 86 NW 24 39 29.29 992 0 0 0.00 0.00
7:28 am 07:28 Cloudy with Haze 27 -3 23 -5 86 86 NW 22 35 29.28 992 1 1 0.00 0.00
7:38 am 07:38 Cloudy with Haze 28 -2 21 -6 74 74 NNW 14 22 29.26 991 3 5 0.00 0.00
7:58 am 07:58 Cloudy 27 -2.8 21 -5.9 79 79 NNW 16 26 29.28 992 10 16 0.00 0.00
8:18 am 08:18 Mostly Cloudy with Haze 28 -2 21 -6 74 74 NNW 17 28 29.27 991 5 8 0.00 0.00
8:33 am 08:33 Mostly Cloudy with Freezing Fog 27 -3 23 -5 86 86 N 22 35 29.28 992 1 1 0.00 0.00
8:58 am 08:58 Cloudy with Mist and Fog 27 -2.7 24 -4.5 88 88 NW 22 35 29.28 992 1 2 0.00 0.00
9:13 am 09:13 Cloudy with Haze 28 -2 23 -5 80 80 NNW 20 31 29.28 992 1 2 0.00 0.00
9:28 am 09:28 Cloudy with Haze 28 -2 23 -5 80 80 NNW 22 35 29.28 992 6 10 0.00 0.00
9:48 am 09:48 Cloudy with Haze 28 -2 23 -5 80 80 NNW 18 30 29.28 992 3 5 0.00 0.00
9:53 am 09:53 Cloudy with Haze 28 -2 23 -5 80 80 NNW 15 24 29.29 992 5 8 0.00 0.00
9:58 am 09:58 Cloudy 28 -2.3 23 -4.8 83 83 NNW 13 20 29.29 992 10 16 0.00 0.00
10:28 am 10:28 Cloudy with Haze 28 -2 23 -5 80 80 NNW 20 31 29.26 991 5 8 0.00 0.00
10:43 am 10:43 Cloudy 28 -2 23 -5 80 80 N 17 28 29.27 991 10 16 0.00 0.00
10:58 am 10:58 Cloudy with Haze 28 -2.2 23 -5.1 81 81 NNW 21 33 29.28 992 7 11 0.00 0.00
11:13 am 11:13 Cloudy with Haze 28 -2 23 -5 80 80 NNW 17 28 29.28 992 7 11 0.00 0.00
11:28 am 11:28 Cloudy 28 -2 23 -5 80 80 NNW 15 24 29.28 992 10 16 0.00 0.00
11:58 am 11:58 Cloudy with Haze 28 -2.3 22 -5.4 80 80 NNW 22 35 29.31 993 7 11 0.00 0.00
12:13 pm 12:13 Cloudy with Haze 27 -3 23 -5 86 86 NNW 18 30 29.32 993 5 8 0.00 0.00
12:28 pm 12:28 Cloudy with Haze 28 -2 23 -5 80 80 NNW 20 31 29.32 993 2 3 0.00 0.00
12:58 pm 12:58 Mostly Cloudy with Haze 28 -2.4 22 -5.6 79 79 NNW 16 26 29.34 994 4 6 0.00 0.00
1:53 pm 13:53 Cloudy with Haze 28 -2 19 -7 69 69 NW 21 33 29.35 994 5 8 0.00 0.00
1:58 pm 13:58 Cloudy with Haze 28 -2.3 20 -6.6 73 73 NW 17 28 29.35 994 6 10 0.00 0.00
2:58 pm 14:58 Cloudy 28 -2.2 19 -7.2 69 69 NW 16 26 29.37 995 10 16 0.00 0.00
3:43 pm 15:43 Cloudy with Haze 27 -3 19 -7 74 74 N 21 33 29.39 995 3 5 0.00 0.00
3:58 pm 15:58 Cloudy 28 -2.3 19 -7.1 70 70 N 21 33 29.39 995 10 16 0.00 0.00
4:03 pm 16:03 Cloudy 28 -2 19 -7 69 69 NNW 18 30 29.39 995 10 16 0.00 0.00
4:58 pm 16:58 Cloudy with Haze 26 -3.1 18 -7.8 70 70 NW 18 30 29.44 997 4 6 0.00 0.00
5:58 pm 17:58 Mostly Cloudy with Haze 27 -2.9 16 -8.7 65 65 NW 24 39 29.44 997 4 6 0.00 0.00
6:58 pm 18:58 Hazy 26 -3.2 14 -10.2 59 59 NW 35 56 29.44 997 6 10 0.00 0.00
7:58 pm 19:58 Clear 26 -3.4 13 -10.8 57 57 NW 31 50 29.48 998 10 16 0.00 0.00
8:58 pm 20:58 Mostly Cloudy 25 -3.8 13 -10.4 61 61 NW 21 33 29.50 999 10 16 0.00 0.00
9:58 pm 21:58 Mostly Cloudy 26 -3.4 12 -11 56 56 NW 29 46 29.50 999 10 16 0.00 0.00
10:58 pm 22:58 Partly Cloudy 26 -3.6 12 -11 57 57 NW 25 41 29.52 1000 10 16 0.00 0.00
11:58 pm 23:58 Clear 26 -3.4 12 -11 56 56 NNW 20 31 29.52 1000 10 16 0.00 0.00

Powered by AerisWeather